Location: Hurecourt
(47.9030°N, 6.0653°E)
Time: 20:48:55
(UTC+00:00)

SeaSat 1 - Pass Details

Date: 14 July 2020
Orbit: 744 x 748 km, 108.0° (Epoch: 14 August)

Event Time Altitude Azimuth Distance (km) Brightness Sun altitude
Rises 02:13:41 0° 26° (NNE) 3,202 7.6 -12.6°
Reaches altitude 10° 02:15:59 10° 22° (NNE) 2,274 6.3 -12.3°
Maximum altitude 02:20:50 59° 304° (NW) 862 2.7 -11.9°
Enters shadow 02:24:48 15° 228° (SW) 1,921 3.9 -11.4°
